Tracking 31032 objects as of 13-Jul-2025
HD Live streaming from Space Station
objects crossing your sky now

CZ-6A DEB

Track CZ-6A DEB now!
10-day predictions


NORAD ID: 54404
Int'l Code: 2022-151EC
Perigee: 784.5 km
Apogee: 862.1 km
Inclination: 98.8 °
Period: 101.2 minutes
Semi major axis: 7194 km
RCS: Unknown
Launch date: November 11, 2022
Source: People's Republic of China (PRC)
Launch site: Taiyaun Space Center, China (TSC)

Note: This is SATELLITE DEBRIS
Your satellite tracking list
Your tracking list is empty




NASA's NSSDC Master Catalog

Two Line Element Set (TLE):
1 54404U 22151EC  25193.98920482  .00000639  00000-0  30051-3 0  9990
2 54404  98.7739 209.5733 0053946 245.1302 114.4262 14.22732078138047
Source of the keplerian elements: AFSPC